Wind_Speed
9 9 7 5 4 2 1 1 3 4 5 5 5 5 6 6 7 7 8 9 10 11 11 12 12 12 12 12 12 12 12 13 13 13 14 15 15 15 15 15 14 14 14
9 9 8 7 6 6 5 4 2 1 2 3 4 5 6 7 7 7 8 8 9 10 10 11 11 11 11 11 11 11 11 12 12 13 14 14 15 16 16 16 16 16 16
9 9 8 7 7 6 6 6 5 4 2 2 2 3 5 6 6 7 7 8 9 9 10 10 10 10 10 10 10 10 10 10 11 11 12 13 13 15 16 17 17 17 17
8 7 7 7 7 7 6 6 5 5 4 3 3 3 3 4 4 5 6 7 8 8 9 9 10 10 10 10 10 11 11 11 10 10 11 12 12 14 15 16 17 18 18
5 5 5 5 6 6 6 6 5 5 4 4 4 4 4 4 4 5 6 6 7 8 9 9 10 10 11 11 11 12 12 12 12 12 12 12 13 14 15 16 17 18 19
3 3 3 3 3 4 4 4 4 4 4 4 4 4 5 5 5 6 6 7 7 8 9 9 10 11 11 12 12 12 13 13 14 14 14 14 14 15 15 16 16 18 19
3 3 3 3 3 3 3 3 3 4 4 4 4 5 5 5 6 7 7 8 8 9 10 11 11 12 12 13 13 14 14 15 15 16 16 16 16 17 17 17 18 18 19
4 4 4 4 4 4 5 5 5 5 5 6 6 6 6 7 7 8 9 9 10 11 12 12 13 14 15 15 16 16 16 17 17 18 18 19 19 19 19 19 19 20 20
6 6 6 6 6 6 6 6 6 7 7 7 8 8 9 9 9 10 11 11 12 13 13 14 15 16 17 18 18 19 20 20 20 20 21 21 22 22 22 22 22 22 22
8 8 8 8 8 8 8 8 8 8 8 9 9 10 10 10 11 11 12 13 14 15 15 16 17 18 19 20 20 21 22 22 23 23 24 24 24 25 25 25 25 25 25
10 10 11 10 10 10 10 10 9 10 10 10 10 11 12 12 12 12 13 14 15 16 17 18 19 20 21 21 22 23 24 24 25 25 26 26 27 27 27 28 28 28 28
13 13 13 13 13 12 12 11 11 11 11 12 12 13 14 14 14 14 14 16 17 18 19 20 21 22 23 24 25 25 26 27 27 28 28 29 29 29 29 30 30 30 31
15 15 15 15 15 14 14 14 13 13 13 14 14 15 15 16 16 16 16 17 19 20 21 22 23 24 25 26 27 28 29 30 30 31 32 32 32 33 33 33 33 33 33
16 16 16 16 16 16 16 15 15 15 15 16 16 17 17 18 18 18 19 20 21 22 23 24 25 26 27 29 30 31 32 33 33 34 35 35 36 36 36 37 37 37 37
18 18 18 18 17 17 17 17 17 17 18 18 18 19 19 20 21 21 22 22 23 24 25 26 27 29 30 31 33 34 35 36 37 38 39 39 39 40 40 40 40 40 40
20 19 19 19 19 19 19 19 19 19 19 19 20 20 21 22 23 23 24 25 25 26 28 29 30 32 33 34 36 37 39 40 41 42 43 43 44 44 44 44 44 44 44
21 21 21 21 21 21 21 21 21 21 21 21 21 22 23 24 25 25 26 28 29 30 31 32 34 35 36 38 39 41 42 44 45 46 47 48 48 49 49 49 49 49 48
23 23 23 23 23 23 23 22 22 22 22 22 23 24 24 25 27 28 29 31 32 33 35 36 37 39 40 42 44 45 47 48 49 51 51 52 53 53 54 54 54 54 54
26 26 26 26 25 25 24 24 23 23 24 24 25 26 27 28 30 31 32 34 35 37 38 40 41 43 44 46 48 49 51 53 54 55 57 57 58 58 59 59 59 59 58
28 28 28 28 27 26 26 25 25 25 26 27 28 29 30 31 32 34 35 37 38 40 42 43 45 47 49 51 53 54 56 57 59 60 61 62 63 63 63 63 63 63 63
30 30 30 29 28 28 27 27 27 28 29 29 30 32 33 34 36 37 39 41 42 44 46 48 50 52 54 55 57 59 61 62 64 65 66 67 68 68 68 68 68 67 67
32 32 31 30 30 30 29 29 29 30 31 32 33 35 36 38 39 41 43 45 47 49 51 53 55 57 58 60 62 64 66 67 68 69 71 72 73 73 73 73 72 72 71
34 33 32 32 32 31 31 31 32 33 34 35 37 38 40 41 43 45 46 49 51 53 55 57 59 61 63 65 66 68 70 71 72 73 74 75 76 77 77 76 76 76 75
35 34 33 33 33 33 33 34 35 36 37 39 40 42 44 46 47 49 51 53 55 57 59 61 63 65 67 69 70 72 74 76 76 77 77 78 79 79 78 78 78 78 78
36 35 35 35 35 35 36 37 38 39 41 43 44 46 48 50 51 53 55 57 59 61 63 65 67 69 70 72 74 75 77 79 81 81 81 80 80 81 81 80 79 79 79
36 36 36 37 37 38 39 40 42 43 45 47 48 50 52 53 55 57 59 61 63 65 66 68 70 72 74 76 78 79 81 82 83 84 84 83 82 81 81 81 81 80 80
Wind_Direction
74 72 71 67 59 45 22 278 256 249 243 246 250 251 253 258 262 263 265 268 272 277 281 282 286 289 292 294 295 294 292 290 288 287 286 285 285 284 285 284 282 281 280
71 67 64 58 51 47 47 46 43 359 267 258 257 259 261 264 267 267 269 271 273 277 281 284 286 289 292 296 298 298 297 295 293 290 288 286 285 284 284 283 282 281 279
70 66 62 56 50 46 45 46 44 40 28 343 297 280 277 275 274 273 274 275 277 280 281 282 283 285 289 293 296 298 297 296 294 291 290 288 286 285 283 282 281 280 278
72 68 64 58 52 46 42 41 41 39 33 23 7 346 325 308 297 290 287 286 283 283 283 284 284 284 285 287 289 290 290 289 288 286 286 286 285 285 284 283 282 280 279
68 68 65 59 53 48 44 40 36 32 27 20 12 5 355 342 328 316 307 301 296 292 291 290 289 288 288 287 286 286 285 283 282 281 280 280 281 282 283 283 283 282 281
50 51 51 47 43 37 32 28 26 22 16 10 3 355 348 341 334 327 319 312 306 301 299 297 296 294 292 291 289 287 285 283 282 282 281 280 279 279 280 281 282 283 283
15 10 5 359 355 353 353 354 353 351 349 347 344 339 334 330 325 320 316 312 308 305 304 302 300 298 297 296 294 292 289 287 285 284 283 282 281 280 279 280 280 281 283
339 339 338 335 333 330 327 326 326 325 323 321 320 319 318 316 313 311 309 307 305 304 303 302 301 300 299 298 297 296 294 292 290 288 286 285 284 282 281 280 280 279 279
317 318 319 319 319 319 320 320 318 317 317 315 314 312 311 309 308 306 305 303 301 301 300 300 300 300 299 299 297 296 295 293 292 291 289 288 287 285 284 282 281 279 278
305 308 308 308 308 310 311 312 313 313 313 312 311 310 309 307 305 305 303 302 301 300 299 299 298 298 298 297 297 296 295 294 293 292 290 289 288 286 285 284 282 280 278
296 298 299 300 300 301 303 304 306 306 307 307 307 306 304 303 303 302 301 301 301 300 299 299 298 298 297 297 296 296 295 294 294 292 291 290 288 287 285 284 282 281 279
290 291 291 292 292 294 296 297 298 299 301 301 300 299 299 299 300 300 300 299 299 299 299 299 298 297 297 297 296 296 295 294 293 292 290 289 288 286 285 284 282 281 279
285 287 286 286 286 287 288 289 291 292 293 293 294 295 296 298 299 300 300 299 299 299 299 299 299 299 298 297 297 296 296 295 293 292 291 289 288 286 285 283 282 280 279
282 283 283 282 282 282 283 284 284 286 286 288 290 292 294 296 297 298 299 299 298 298 298 299 299 298 298 298 298 297 296 295 294 293 292 290 289 287 285 284 282 280 279
278 278 279 279 279 279 279 280 281 282 283 285 287 288 290 292 295 297 298 299 299 299 299 300 299 299 298 298 297 297 297 296 295 294 293 291 290 289 287 286 284 282 280
273 274 274 275 276 277 277 278 278 279 281 283 285 287 289 291 293 295 296 297 297 298 297 298 298 298 298 297 296 296 296 295 294 293 292 291 290 289 287 286 285 283 282
270 270 271 273 274 274 274 274 275 276 278 280 282 284 286 288 290 291 292 293 294 295 295 296 296 296 295 295 295 294 294 293 293 292 291 290 289 288 287 286 284 283 282
269 269 270 271 271 271 271 271 272 273 275 278 280 282 284 286 287 289 290 291 292 293 294 294 294 294 294 294 293 293 292 291 291 290 290 289 288 287 286 284 283 282 281
269 269 269 270 269 269 269 269 270 272 274 277 279 281 283 284 286 287 288 290 291 292 292 293 293 293 293 292 292 291 291 290 290 289 288 288 287 286 285 283 282 281 280
269 268 268 268 267 266 267 268 270 272 275 277 279 281 283 284 286 287 288 289 290 291 292 293 293 293 293 292 292 292 291 291 290 289 288 287 287 285 284 283 282 280 279
269 268 267 265 264 265 266 268 270 273 276 278 280 282 284 286 287 289 290 291 292 293 293 294 295 295 295 294 294 293 293 292 291 290 289 288 287 286 285 283 282 280 279
268 267 265 264 264 265 267 269 271 275 277 280 283 285 286 288 289 290 291 292 293 294 295 296 296 296 296 296 295 294 294 293 292 291 289 288 287 286 285 284 282 280 279
267 266 264 264 265 266 268 271 274 277 280 282 285 286 288 289 291 292 293 294 295 295 296 297 297 298 297 297 296 295 294 293 292 291 289 288 286 285 284 283 282 280 278
265 265 264 265 267 269 271 274 277 280 283 285 287 289 290 291 292 294 295 295 296 297 297 298 298 298 298 297 297 296 295 294 292 291 289 288 286 284 283 281 280 279 278
264 264 265 267 269 271 274 277 280 283 285 287 289 290 292 293 294 295 296 296 297 297 298 299 299 299 298 298 297 296 295 294 293 291 289 287 285 284 283 281 279 278 277
263 264 266 268 271 274 277 279 282 284 286 287 289 291 292 294 295 296 296 297 298 298 299 299 299 299 298 298 298 297 296 295 293 292 290 288 286 284 282 281 279 277 275
Height
5866 5866 5866 5866 5866 5867 5867 5867 5868 5869 5870 5871 5873 5874 5875 5877 5878 5879 5881 5882 5882 5883 5884 5884 5885 5885 5886 5886 5886 5887 5887 5887 5887 5887 5887 5888 5888 5887 5887 5887 5887 5887 5887
5867 5867 5867 5868 5868 5868 5868 5868 5868 5869 5870 5871 5872 5873 5875 5876 5877 5878 5879 5880 5881 5882 5883 5883 5884 5884 5885 5885 5885 5885 5885 5885 5886 5886 5886 5886 5886 5886 5886 5886 5886 5886 5885
5869 5868 5868 5869 5869 5869 5869 5869 5869 5870 5870 5871 5872 5873 5874 5875 5876 5878 5878 5879 5880 5881 5882 5882 5882 5883 5883 5884 5884 5884 5884 5884 5884 5884 5884 5884 5885 5885 5885 5885 5884 5884 5884
5870 5869 5869 5869 5870 5870 5870 5870 5870 5871 5871 5872 5872 5873 5874 5875 5876 5877 5877 5878 5879 5879 5880 5880 5881 5881 5882 5882 5882 5882 5882 5882 5882 5882 5883 5883 5883 5883 5883 5883 5882 5882 5882
5870 5870 5870 5870 5870 5870 5870 5871 5871 5871 5872 5872 5873 5873 5874 5875 5875 5876 5876 5877 5878 5878 5878 5879 5879 5879 5880 5880 5880 5880 5880 5880 5880 5880 5881 5881 5881 5881 5881 5880 5880 5880 5880
5871 5871 5871 5871 5871 5871 5871 5871 5871 5871 5872 5872 5873 5873 5874 5875 5875 5875 5876 5876 5876 5877 5877 5877 5878 5878 5878 5878 5878 5878 5878 5878 5878 5878 5878 5878 5878 5878 5878 5878 5878 5878 5878
5872 5872 5871 5871 5871 5871 5871 5871 5871 5871 5872 5872 5872 5873 5873 5874 5874 5874 5875 5875 5875 5876 5876 5876 5876 5876 5876 5876 5876 5876 5876 5876 5876 5876 5875 5875 5875 5875 5875 5875 5875 5874 5874
5872 5872 5872 5871 5871 5871 5871 5871 5871 5871 5871 5871 5872 5872 5872 5873 5873 5873 5874 5874 5874 5874 5874 5874 5874 5874 5874 5874 5874 5874 5874 5874 5874 5874 5873 5872 5872 5872 5872 5871 5871 5871 5871
5871 5871 5871 5871 5871 5871 5871 5870 5870 5870 5870 5870 5870 5870 5871 5871 5871 5871 5872 5872 5872 5872 5872 5872 5872 5872 5872 5871 5871 5871 5871 5871 5871 5871 5870 5870 5869 5869 5868 5868 5867 5867 5867
5870 5870 5870 5870 5870 5870 5870 5869 5869 5869 5869 5869 5869 5869 5869 5869 5869 5869 5869 5869 5869 5869 5869 5869 5869 5869 5869 5868 5868 5868 5868 5868 5868 5867 5867 5866 5866 5865 5865 5864 5863 5863 5863
5869 5869 5868 5868 5868 5868 5868 5868 5867 5867 5867 5867 5867 5866 5866 5866 5866 5867 5867 5867 5866 5866 5866 5866 5866 5866 5865 5865 5865 5864 5864 5864 5863 5863 5862 5862 5861 5861 5860 5860 5859 5859 5858
5867 5867 5866 5866 5866 5866 5866 5865 5865 5865 5865 5865 5864 5864 5863 5863 5863 5864 5864 5864 5863 5863 5863 5862 5862 5862 5861 5861 5860 5860 5859 5859 5858 5858 5857 5857 5856 5856 5855 5854 5854 5853 5853
5865 5864 5864 5864 5863 5863 5863 5863 5862 5862 5862 5862 5861 5861 5860 5860 5860 5860 5860 5860 5860 5859 5859 5858 5858 5857 5857 5856 5855 5855 5854 5854 5853 5852 5852 5851 5850 5850 5849 5848 5848 5847 5846
5862 5861 5861 5861 5860 5860 5860 5860 5859 5859 5859 5858 5858 5858 5857 5856 5856 5856 5856 5856 5855 5855 5854 5854 5853 5853 5852 5851 5850 5849 5848 5848 5847 5846 5845 5844 5844 5843 5842 5842 5841 5840 5840
5858 5858 5858 5857 5857 5857 5856 5856 5856 5856 5855 5855 5854 5854 5853 5853 5852 5852 5852 5851 5851 5850 5849 5849 5848 5847 5846 5845 5844 5843 5842 5841 5840 5839 5838 5837 5836 5835 5834 5834 5833 5832 5832
5855 5854 5854 5854 5853 5853 5853 5852 5852 5852 5851 5851 5851 5850 5849 5849 5848 5847 5847 5846 5846 5845 5844 5843 5842 5841 5840 5839 5838 5836 5835 5834 5832 5831 5830 5829 5828 5826 5825 5824 5824 5823 5822
5850 5850 5850 5850 5849 5849 5849 5848 5848 5848 5847 5847 5846 5846 5845 5844 5843 5843 5842 5841 5840 5839 5838 5837 5836 5835 5833 5832 5831 5829 5827 5826 5824 5822 5821 5820 5818 5817 5815 5814 5813 5812 5811
5845 5845 5845 5845 5845 5844 5844 5844 5844 5843 5843 5842 5842 5841 5840 5839 5838 5837 5836 5835 5834 5833 5832 5830 5829 5827 5826 5824 5822 5821 5819 5817 5815 5813 5811 5809 5808 5806 5805 5803 5802 5801 5799
5840 5840 5840 5840 5839 5839 5839 5839 5839 5838 5838 5837 5836 5836 5835 5834 5833 5832 5831 5829 5828 5826 5825 5823 5821 5819 5817 5815 5813 5811 5809 5807 5805 5803 5800 5798 5796 5794 5793 5791 5789 5788 5786
5834 5834 5834 5834 5834 5834 5833 5833 5833 5833 5832 5831 5831 5830 5829 5828 5826 5825 5823 5822 5820 5818 5816 5814 5812 5810 5807 5805 5802 5800 5798 5796 5793 5790 5788 5786 5784 5781 5779 5777 5775 5774 5772
5827 5828 5828 5828 5828 5828 5828 5827 5827 5826 5826 5825 5824 5823 5822 5820 5819 5817 5815 5813 5811 5809 5807 5804 5802 5799 5797 5794 5790 5787 5785 5783 5779 5776 5774 5772 5769 5766 5764 5762 5760 5758 5756
5820 5820 5821 5821 5821 5821 5821 5821 5820 5819 5819 5818 5817 5815 5814 5812 5810 5808 5806 5804 5801 5799 5796 5793 5790 5787 5784 5781 5777 5773 5770 5769 5765 5762 5759 5756 5753 5750 5747 5744 5742 5740 5739
5812 5813 5813 5813 5814 5814 5814 5813 5813 5812 5811 5810 5808 5807 5805 5803 5801 5798 5796 5793 5790 5787 5784 5780 5777 5774 5770 5766 5763 5759 5754 5751 5749 5745 5742 5739 5735 5732 5729 5726 5723 5721 5719
5804 5804 5805 5805 5806 5806 5806 5805 5805 5804 5802 5801 5799 5797 5795 5793 5790 5787 5784 5781 5778 5775 5771 5767 5763 5759 5755 5750 5746 5741 5736 5732 5729 5727 5725 5720 5716 5713 5709 5706 5703 5700 5698
5795 5796 5797 5797 5797 5797 5797 5796 5796 5794 5793 5791 5789 5787 5785 5782 5779 5775 5772 5769 5765 5761 5757 5752 5748 5743 5738 5734 5729 5723 5717 5711 5706 5703 5703 5701 5697 5692 5688 5684 5681 5678 5675
5787 5787 5788 5788 5788 5788 5788 5787 5786 5785 5783 5781 5779 5776 5773 5770 5767 5763 5759 5755 5751 5746 5741 5737 5732 5726 5721 5715 5709 5703 5697 5691 5684 5679 5676 5675 5674 5672 5666 5661 5657 5654 5651